This demonstration page uses our WeatherBlox Daily Observations layout. Learn more.

Left ArrowRight Arrow

Hourly Observations for August 20, 2016

Temp ( °F °C ) Dew Point ( °F °C ) Humidity (%) Winds ( mph kmh ) Pressure ( in mb ) Visibility ( mi km ) Precip ( " mm )
12:51 am 00:51 Mostly Clear 82 27.8 49 9.4 32 32 NW 16 26 29.75 1008 10 16 0.00 0.00
1:51 am 01:51 Clear 80 26.7 49 9.4 34 34 NW 14 22 29.76 1008 10 16 0.00 0.00
2:51 am 02:51 Mostly Cloudy 80 26.7 50 10 35 35 NW 15 24 29.75 1008 10 16 0.00 0.00
3:51 am 03:51 Mostly Clear 79 26.1 51 10.6 38 38 NW 13 20 29.76 1008 10 16 0.00 0.00
4:51 am 04:51 Mostly Cloudy 77 25 51 10.6 40 40 NW 7 11 29.78 1008 10 16 0.00 0.00
5:51 am 05:51 Sunny 75 23.9 50 10 41 41 WNW 6 9 29.80 1009 10 16 0.00 0.00
6:51 am 06:51 Sunny 79 26.1 52 11.1 39 39 NW 6 9 29.82 1010 10 16 0.00 0.00
7:51 am 07:51 Sunny 83 28.3 52 11.1 34 34 WNW 10 17 29.83 1010 10 16 0.00 0.00
8:51 am 08:51 Sunny 86 30 52 11.1 31 31 WNW 15 24 29.82 1010 10 16 0.00 0.00
9:51 am 09:51 Sunny 88 31.1 53 11.7 30 30 WNW 16 26 29.81 1010 10 16 0.00 0.00
10:51 am 10:51 Sunny 91 32.8 53 11.7 27 27 NW 18 30 29.80 1009 10 16 0.00 0.00
11:51 am 11:51 Sunny 93 33.9 50 10 23 23 NW 15 24 29.77 1008 10 16 0.00 0.00
12:51 pm 12:51 Sunny 94 34.4 51 10.6 23 23 W 10 17 29.74 1007 10 16 0.00 0.00
1:51 pm 13:51 Sunny 95 35 47 8.3 19 19 SW 8 13 29.72 1006 10 16 0.00 0.00
2:51 pm 14:51 Sunny with Nearby Thunderstorms 89 31.7 51 10.6 27 27 SW 16 26 29.72 1006 10 16 0.00 0.00
3:35 pm 15:35 Cloudy with Thunderstorms 87 30.6 51 10.6 29 29 undefined N/A 29.68 1005 10 16 0.00 0.00
3:51 pm 15:51 Windy with Storms Likely 73 22.8 62 16.7 69 69 WNW 24 39 29.79 1009 5 8 0.00 0.03
4:03 pm 16:03 Windy with Storms Likely 72 22.2 61 16.1 68 68 NNW 23 37 29.80 1009 10 16 0.02 0.51
4:27 pm 16:27 Cloudy with Nearby Thunderstorms 74 23.3 59 15 60 60 NNW 18 30 29.77 1008 7 11 0.02 0.51
4:38 pm 16:38 Cloudy with Light Rain 78 25.6 55 12.8 45 45 NNW 13 20 29.74 1007 10 16 0.04 1.02
4:51 pm 16:51 Cloudy with Thunderstorms 78 25.6 56 13.3 47 47 NW 15 24 29.78 1008 3 5 0.04 1.02
5:13 pm 17:13 Cloudy with Light Rain 74 23.3 58 14.4 57 57 VRB 7 11 29.77 1008 5 8 0.02 0.51
5:51 pm 17:51 Partly Cloudy 77 25 60 15.6 56 56 W 13 20 29.77 1008 10 16 0.02 0.51
5:58 pm 17:58 Mostly Sunny 78 25.6 59 15 52 52 WNW 10 17 29.74 1007 10 16 0.00 0.00
6:51 pm 18:51 Mostly Sunny 76 24.4 61 16.1 60 60 NW 12 19 29.78 1008 10 16 0.00 0.00
7:51 pm 19:51 Clear 74 23.3 60 15.6 62 62 WNW 9 15 29.77 1008 10 16 0.00 0.00
8:51 pm 20:51 Clear 72 22.2 62 16.7 71 71 ENE 5 7 29.81 1009 10 16 0.00 0.00
9:51 pm 21:51 Clear 73 22.8 60 15.6 64 64 WSW 7 11 29.81 1010 10 16 0.00 0.00
10:51 pm 22:51 Clear 69 20.6 61 16.1 76 76 NNW 5 7 29.83 1010 10 16 0.00 0.00
11:51 pm 23:51 Clear 69 20.6 60 15.6 73 73 N 7 11 29.83 1010 10 16 0.00 0.00

Powered by AerisWeather